Regional Weather Roundup
Issued by NWS Northern Indiana

Home | Current Version | Previous Version | Text Only | Print | Product List | Glossary On
Versions: 1 2 3 4 5 6 7 8 9 10 11 12 13 14 15 16 17 18 19 20 21 22 23 24 25 26 27 28 29 30 31 32 33 34 35 36 37 38 39 40 41 42 43 44 45 46 47 48 49 50
000
ASUS43 KIWX 231110
RWRIWX

KIWX WEATHER ROUNDUP
NATIONAL WEATHER SERVICE NORTHERN INDIANA
600 AM EST SUN NOV 23 2014

NOTE: "FAIR" INDICATES FEW OR NO CLOUDS BELOW 12,000 FEET WITH NO
SIGNIFICANT WEATHER AND/OR OBSTRUCTIONS TO VISIBILITY.

* THESE STATIONS ARE NOT UNDER NWS QUALITY CONTROL. THEY ALSO MAY NOT
  REPORT WEATHER SUCH AS PRECIPITATION OR FOG.

INZ001>027-231200-
NORTHERN INDIANA

CITY           SKY/WX    TMP DP  RH WIND       PRES   REMARKS
GARY*          MOCLDY    50  43  76 S12       29.80F
VALPARAISO     MOCLDY    46  42  86 S7        29.83F
MICHIGAN CITY* CLOUDY    46  41  81 S9G17     29.82F
LAPORTE*       CLOUDY    48  46  94 S9        29.83F
KNOX*          CLOUDY    46  42  85 SE10      29.84F
SOUTH BEND     CLOUDY    49  43  80 S13       29.85F
GOSHEN         CLOUDY    47  44  90 SE9       29.87F
MONTICELLO*    CLOUDY    46  42  84 SE6       29.86S
LOGANSPORT*    CLOUDY    45  39  81 SE8       29.88F
ROCHESTER*     CLOUDY    48  43  81 S9        29.88F
WARSAW*        CLOUDY    45  43  93 SE5       29.88F
ANGOLA*        CLOUDY    45  34  65 S6        29.91S
FORT WAYNE     CLOUDY    45  42  89 SE7       29.92F
HUNTINGTON*    CLOUDY    45  42  91 S5        29.91S
PERU/GRISSOM   CLOUDY    46  46 100 S10       29.88F
MARION*        CLOUDY    45  40  82 S8        29.91F

$$
INZ028>050-231200-
CENTRAL INDIANA

CITY           SKY/WX    TMP DP  RH WIND       PRES   REMARKS
LAFAYETTE      CLOUDY    47  41  80 S6        29.85F
KOKOMO*        CLOUDY    45  39  81 S7        29.89F
MUNCIE*        CLOUDY    50  40  68 S13       29.92F
INDIANAPOLIS   MOCLDY    47  39  74 SE8       29.88F

$$
MIZ043>046-050>051-056>058-064>065-071>073-077>080-231200-
SOUTHWEST LOWER MICHIGAN

CITY           SKY/WX    TMP DP  RH WIND       PRES   REMARKS
BATTLE CREEK   CLOUDY    49  44  83 S15       29.87S
BENTON HARBOR  CLOUDY    48  45  89 S10       29.81F
COLDWATER*     DRIZZLE   48  45  89 S7        29.90S
HILLSDALE*     CLOUDY    45  45 100 S7        29.91S FOG
HOLLAND        CLOUDY    50  46  86 S12       29.82F
GRAND RAPIDS   CLOUDY    47  44  90 S10       29.83F
KALAMAZOO      CLOUDY    47  44  90 S13       29.87S
STURGIS*       DRIZZLE   45  43  93 S9        29.89S
THREE RIVERS*  DRIZZLE   47  45  90 S12       29.88S

$$
OHZ001>008-015>018-024>025-231200-
NORTHWEST OHIO

CITY           SKY/WX    TMP DP  RH WIND       PRES   REMARKS
WAUSEON*       CLOUDY    45  45 100 S8        29.95S FOG
DEFIANCE       LGT RAIN  47  44  90 S8        29.95S
FINDLAY        CLOUDY    45  41  86 SE8       29.97F
TOLEDO EXPRESS LGT RAIN  45  43  93 S8        29.95F
TOLEDO METCALF LGT RAIN  45  42  89 S8        29.97F
LIMA           CLOUDY    47  40  76 S9        29.96F

$$
AND FOR LAKE MICHIGAN COASTAL AND OPEN LAKE BUOY OBSERVATIONS

STATION/POSITION TEMP    WIND        PRES    VSBY  WAVE
                 AIR SEA DIR/SP/G                  HT/PER
                 (F)     (DEG/KT/KT) (MB)    (MI)  (FT/S)
CALUMET HARBOR    50     170/ 12/ 17 1007.4F
MICHIGAN CITY     49     150/ 14/ 19   N/A
SAINT JOSEPH      49     150/  5/ 10 1010.5S
SOUTH LAKE BUOY   45 43  170/ 17/ 21 1008.2F         3/ 4

$$
&&


USA.gov is the U.S. government's official web portal to all federal, state and local government web resources and services.